Lawrenceville, GA

12:47 PM EST on December 05, 2019 (GMT -0500)
Gwinnett County-Briscoe

Weather History for KLZU - September, 2019

Change the Weather History Date:

Thursday, September 26, 2019

  Actual Average (WUND) Record (WUND)
Temperature  
Mean Temperature 80 °F -  
Max Temperature 93 °F - - (-1)
Min Temperature 66 °F - - (-1)
Cooling Degree Days 14    
Growing Degree Days 30 (Base 50)    
Moisture  
Dew Point 65 °F    
Average Humidity 64    
Maximum Humidity 87    
Minimum Humidity 38    
Precipitation  
Precipitation 0.00 in - - ()
Sea Level Pressure  
Sea Level Pressure 29.94 in    
Wind  
Wind Speed 2 mph (West)    
Max Wind Speed 8 mph    
Max Gust Speed -    
Visibility 10 miles    
Events Rain    
Averages and records for this station are not official NWS values.
T = Trace of Precipitation, MM = Missing Value Source: NWS Daily Summary

Daily Weather History Graph

Daily Weather History Graph

Search for Another Location

Airport or City:

Astronomy

Sep. 26, 2019 Rise Set
Actual Time 7:26 AM EDT 7:27 PM EDT
Civil Twilight 7:01 AM EDT 7:52 PM EDT
Nautical Twilight 6:32 AM EDT 8:21 PM EDT
Astronomical Twilight 6:03 AM EDT 8:50 PM EDT
Moon 4:43 AM EDT (9/26) 6:30 PM EDT (9/26)
Length of Visible Light 12h 50m
Length of Day
12h 00m
Waning Crescent, 7% of the Moon is Illuminated
Sep 26
Waning Crescent
Sep 28
New
Oct 5
First Quarter
Oct 13
Full
Oct 21
Last Quarter

Hourly Weather History & Observations

Time (EDT) Temp. Heat Index Dew Point Humidity Pressure Visibility Wind Dir Wind Speed Gust Speed Precip Events Conditions
12:56 AM 66.9 °F - 63.0 °F 87% 29.94 in 10.0 mi Calm Calm - N/A   Clear
1:56 AM 66.9 °F - 62.1 °F 84% 29.93 in 10.0 mi Calm Calm - N/A   Clear
2:56 AM 66.9 °F - 62.1 °F 84% 29.91 in 10.0 mi Calm Calm - N/A   Clear
3:56 AM 66.0 °F - 62.1 °F 87% 29.90 in 10.0 mi Calm Calm - N/A   Clear
4:56 AM 66.0 °F - 62.1 °F 87% 29.91 in 10.0 mi Calm Calm - N/A   Clear
5:56 AM 69.1 °F - 62.1 °F 78% 29.92 in 10.0 mi Calm Calm - N/A   Clear
6:56 AM 69.1 °F - 63.0 °F 81% 29.94 in 9.0 mi Calm Calm - N/A   Mostly Cloudy
7:56 AM 71.1 °F - 64.9 °F 81% 29.96 in 10.0 mi Calm Calm - N/A   Scattered Clouds
8:56 AM 77.0 °F - 62.1 °F 60% 29.97 in 10.0 mi Calm Calm - N/A   Scattered Clouds
9:56 AM 78.1 °F - 64.0 °F 62% 29.99 in 10.0 mi Variable 4.6 mph - 0.00 in Rain Light Rain
10:56 AM 86.0 °F 88.8 °F 66.9 °F 53% 29.99 in 10.0 mi Variable 3.5 mph - 0.00 in   Clear
11:56 AM 88.0 °F 90.3 °F 66.0 °F 48% 29.98 in 10.0 mi Variable 3.5 mph - N/A   Partly Cloudy
12:56 PM 90.0 °F 92.8 °F 66.9 °F 46% 29.96 in 9.0 mi Variable 6.9 mph - N/A   Clear
1:56 PM 90.0 °F 92.4 °F 66.0 °F 45% 29.94 in 10.0 mi Variable 4.6 mph - N/A   Partly Cloudy
2:56 PM 93.0 °F 95.0 °F 64.9 °F 39% 29.92 in 10.0 mi WNW 8.1 mph - N/A   Clear
3:56 PM 93.0 °F 95.0 °F 64.9 °F 39% 29.91 in 10.0 mi West 6.9 mph - N/A   Scattered Clouds
4:56 PM 93.0 °F 94.6 °F 64.0 °F 38% 29.90 in 10.0 mi West 6.9 mph - N/A   Scattered Clouds
5:56 PM 89.1 °F 91.0 °F 64.9 °F 45% 29.90 in 10.0 mi West 8.1 mph - N/A   Partly Cloudy
6:56 PM 87.1 °F 88.9 °F 64.9 °F 48% 29.91 in 10.0 mi West 4.6 mph - N/A   Clear
7:56 PM 82.9 °F 85.0 °F 66.0 °F 56% 29.92 in 10.0 mi Calm Calm - N/A   Clear
8:56 PM 80.1 °F 82.3 °F 66.9 °F 64% 29.93 in 10.0 mi Calm Calm - N/A   Clear
9:56 PM 77.0 °F - 68.0 °F 74% 29.96 in 10.0 mi Calm Calm - N/A   Clear
10:56 PM 77.0 °F - 66.9 °F 71% 29.96 in 10.0 mi Calm Calm - N/A   Clear
11:56 PM 73.9 °F - 66.9 °F 79% 29.96 in 10.0 mi Calm Calm - N/A   Clear